GFSGBSN_prec_precacc24_081.txt.gz
Total_Precipitation_Accumulation
0.02 0.03 0.02 0.02 0.02 0.01 0.01 0.02 0.01 0.01 0.01 0.00 0.00 0.00 0.00 0.00 0.00 0.00 0.00 0.00 0.00 0.00 0.00 0.00 0.00 0.00 0.00 0.00 0.00 0.00 0.00 0.00 0.00 0.00 0.00 0.00 0.00 0.00 0.00 0.00 0.00 0.00 0.00 0.00 0.00 0.00 0.00
0.03 0.03 0.03 0.03 0.02 0.02 0.01 0.01 0.01 0.01 0.01 0.01 0.00 0.00 0.00 0.00 0.00 0.00 0.00 0.00 0.00 0.00 0.00 0.00 0.00 0.00 0.00 0.00 0.00 0.00 0.00 0.00 0.00 0.00 0.00 0.00 0.00 0.00 0.00 0.00 0.00 0.00 0.00 0.00 0.00 0.00 0.00
0.02 0.03 0.03 0.03 0.03 0.03 0.02 0.01 0.02 0.02 0.01 0.01 0.01 0.00 0.00 0.00 0.00 0.00 0.00 0.00 0.00 0.00 0.00 0.00 0.00 0.01 0.00 0.00 0.00 0.00 0.00 0.00 0.00 0.00 0.00 0.00 0.00 0.00 0.00 0.00 0.00 0.00 0.00 0.00 0.00 0.00 0.00
0.03 0.03 0.03 0.03 0.04 0.03 0.03 0.02 0.01 0.01 0.01 0.01 0.01 0.00 0.00 0.00 0.00 0.00 0.00 0.00 0.00 0.00 0.00 0.00 0.00 0.01 0.00 0.00 0.00 0.00 0.00 0.00 0.00 0.00 0.00 0.00 0.00 0.00 0.00 0.00 0.00 0.00 0.00 0.00 0.00 0.00 0.00
0.03 0.03 0.04 0.04 0.04 0.03 0.03 0.03 0.02 0.01 0.01 0.01 0.01 0.01 0.01 0.00 0.00 0.00 0.00 0.00 0.00 0.00 0.00 0.00 0.00 0.00 0.00 0.00 0.00 0.00 0.00 0.00 0.00 0.00 0.00 0.00 0.00 0.00 0.00 0.00 0.00 0.00 0.00 0.00 0.00 0.00 0.00
0.03 0.03 0.03 0.03 0.03 0.03 0.03 0.02 0.03 0.02 0.02 0.02 0.02 0.02 0.00 0.00 0.00 0.00 0.00 0.00 0.00 0.00 0.00 0.00 0.00 0.00 0.00 0.00 0.00 0.00 0.00 0.00 0.00 0.00 0.00 0.00 0.00 0.00 0.00 0.00 0.00 0.00 0.00 0.00 0.00 0.00 0.00
0.04 0.04 0.03 0.03 0.03 0.02 0.03 0.02 0.03 0.03 0.03 0.03 0.03 0.01 0.00 0.00 0.00 0.00 0.00 0.00 0.00 0.00 0.00 0.00 0.00 0.00 0.00 0.00 0.00 0.00 0.00 0.00 0.00 0.00 0.00 0.00 0.00 0.00 0.00 0.00 0.00 0.00 0.00 0.00 0.00 0.00 0.00
0.04 0.04 0.03 0.03 0.03 0.03 0.04 0.04 0.05 0.05 0.03 0.03 0.01 0.01 0.00 0.00 0.00 0.00 0.00 0.00 0.00 0.00 0.00 0.00 0.00 0.00 0.00 0.00 0.00 0.00 0.00 0.00 0.00 0.01 0.00 0.01 0.00 0.00 0.00 0.00 0.00 0.00 0.00 0.00 0.00 0.00 0.00
0.05 0.05 0.04 0.04 0.03 0.04 0.05 0.06 0.05 0.04 0.03 0.02 0.01 0.01 0.00 0.00 0.00 0.00 0.00 0.00 0.00 0.00 0.00 0.00 0.00 0.00 0.00 0.00 0.00 0.00 0.00 0.00 0.00 0.01 0.02 0.01 0.00 0.00 0.00 0.00 0.00 0.00 0.00 0.00 0.00 0.00 0.00
0.06 0.05 0.04 0.04 0.05 0.06 0.05 0.05 0.04 0.02 0.02 0.02 0.02 0.01 0.01 0.00 0.00 0.00 0.00 0.00 0.00 0.00 0.00 0.00 0.00 0.00 0.00 0.00 0.00 0.00 0.00 0.00 0.00 0.00 0.01 0.01 0.00 0.00 0.02 0.01 0.00 0.00 0.00 0.00 0.00 0.02 0.03
0.06 0.06 0.07 0.06 0.06 0.05 0.04 0.05 0.04 0.03 0.02 0.03 0.03 0.03 0.03 0.04 0.01 0.00 0.00 0.00 0.00 0.01 0.00 0.00 0.00 0.00 0.00 0.00 0.00 0.00 0.00 0.00 0.00 0.00 0.00 0.01 0.00 0.01 0.02 0.01 0.00 0.01 0.00 0.02 0.06 0.02 0.01
0.06 0.06 0.05 0.04 0.04 0.05 0.04 0.05 0.06 0.04 0.03 0.02 0.03 0.04 0.06 0.04 0.02 0.00 0.00 0.00 0.02 0.02 0.00 0.00 0.00 0.00 0.00 0.00 0.00 0.00 0.00 0.00 0.00 0.00 0.00 0.00 0.00 0.01 0.01 0.00 0.02 0.03 0.03 0.10 0.08 0.05 0.06
0.06 0.08 0.08 0.08 0.07 0.06 0.06 0.07 0.07 0.05 0.04 0.05 0.04 0.03 0.08 0.03 0.02 0.00 0.00 0.01 0.07 0.02 0.00 0.00 0.00 0.00 0.00 0.00 0.00 0.00 0.00 0.00 0.00 0.02 0.02 0.00 0.00 0.00 0.00 0.03 0.01 0.03 0.07 0.19 0.12 0.06 0.03
0.10 0.09 0.07 0.06 0.05 0.06 0.05 0.06 0.07 0.08 0.07 0.08 0.08 0.11 0.04 0.02 0.03 0.01 0.03 0.06 0.05 0.00 0.00 0.00 0.00 0.00 0.00 0.00 0.00 0.00 0.00 0.00 0.00 0.00 0.01 0.04 0.02 0.00 0.00 0.00 0.00 0.02 0.07 0.12 0.04 0.01 0.01
0.04 0.05 0.04 0.04 0.05 0.06 0.07 0.08 0.09 0.09 0.09 0.11 0.17 0.12 0.08 0.00 0.02 0.08 0.13 0.11 0.01 0.00 0.00 0.00 0.00 0.00 0.00 0.00 0.00 0.00 0.00 0.00 0.00 0.00 0.00 0.00 0.01 0.00 0.00 0.00 0.00 0.01 0.02 0.02 0.08 0.13 0.09
0.08 0.09 0.10 0.10 0.10 0.10 0.11 0.09 0.10 0.10 0.12 0.20 0.21 0.20 0.05 0.01 0.10 0.21 0.27 0.07 0.00 0.00 0.00 0.00 0.00 0.00 0.00 0.00 0.00 0.00 0.03 0.01 0.01 0.00 0.00 0.00 0.00 0.00 0.00 0.00 0.00 0.00 0.01 0.10 0.30 0.17 0.08
0.06 0.06 0.06 0.06 0.07 0.08 0.09 0.09 0.11 0.11 0.15 0.27 0.46 0.46 0.11 0.02 0.33 0.42 0.31 0.04 0.00 0.00 0.00 0.00 0.00 0.00 0.00 0.00 0.00 0.01 0.06 0.05 0.00 0.00 0.00 0.00 0.00 0.00 0.00 0.00 0.00 0.00 0.01 0.17 0.18 0.03 0.06
0.08 0.07 0.07 0.07 0.08 0.09 0.09 0.09 0.09 0.14 0.25 0.53 0.99 0.74 0.20 0.17 0.48 0.37 0.18 0.02 0.00 0.00 0.00 0.00 0.00 0.00 0.00 0.00 0.00 0.00 0.01 0.01 0.00 0.00 0.00 0.01 0.01 0.01 0.00 0.00 0.00 0.00 0.00 0.04 0.14 0.10 0.03
0.07 0.06 0.06 0.06 0.08 0.10 0.09 0.11 0.15 0.19 0.40 0.82 1.25 0.66 0.46 0.50 0.33 0.19 0.13 0.05 0.01 0.00 0.00 0.00 0.00 0.00 0.00 0.00 0.00 0.00 0.00 0.00 0.00 0.00 0.00 0.00 0.00 0.00 0.04 0.04 0.01 0.01 0.00 0.05 0.04 0.07 0.23
0.07 0.07 0.08 0.09 0.09 0.08 0.10 0.13 0.16 0.22 0.43 1.05 1.66 0.84 0.88 0.95 0.41 0.11 0.13 0.09 0.04 0.00 0.00 0.00 0.00 0.00 0.00 0.00 0.00 0.00 0.00 0.00 0.00 0.00 0.00 0.01 0.02 0.06 0.13 0.22 0.18 0.12 0.05 0.03 0.07 0.07 0.05
0.08 0.08 0.07 0.07 0.09 0.10 0.11 0.13 0.17 0.22 0.45 1.36 1.95 0.82 0.37 0.60 0.32 0.15 0.11 0.16 0.06 0.03 0.01 0.00 0.00 0.00 0.00 0.00 0.00 0.00 0.00 0.00 0.00 0.01 0.01 0.05 0.04 0.03 0.04 0.04 0.06 0.13 0.09 0.15 0.13 0.10 0.08
0.09 0.09 0.09 0.10 0.12 0.12 0.12 0.13 0.15 0.22 0.60 1.76 1.84 0.40 0.20 0.17 0.14 0.23 0.22 0.23 0.05 0.03 0.04 0.04 0.01 0.01 0.01 0.00 0.00 0.00 0.01 0.02 0.02 0.04 0.03 0.05 0.05 0.01 0.00 0.01 0.01 0.00 0.01 0.08 0.14 0.15 0.09
0.20 0.23 0.24 0.27 0.31 0.34 0.33 0.26 0.17 0.20 0.80 1.86 1.31 0.28 0.32 0.20 0.06 0.30 0.29 0.14 0.10 0.07 0.06 0.04 0.01 0.03 0.03 0.01 0.00 0.00 0.02 0.02 0.01 0.06 0.11 0.11 0.13 0.06 0.02 0.00 0.01 0.01 0.00 0.00 0.00 0.02 0.01
0.23 0.28 0.32 0.36 0.40 0.43 0.45 0.41 0.31 0.23 0.62 1.04 0.74 0.31 0.40 0.38 0.16 0.08 0.08 0.12 0.10 0.06 0.08 0.05 0.06 0.11 0.05 0.04 0.04 0.05 0.02 0.02 0.01 0.00 0.06 0.16 0.14 0.19 0.10 0.02 0.08 0.03 0.00 0.00 0.00 0.00 0.00
0.18 0.19 0.22 0.25 0.28 0.31 0.35 0.43 0.39 0.29 0.42 0.72 0.62 0.57 0.46 0.26 0.10 0.11 0.11 0.09 0.08 0.09 0.08 0.09 0.11 0.09 0.11 0.14 0.22 0.12 0.05 0.04 0.01 0.00 0.01 0.12 0.21 0.27 0.13 0.06 0.05 0.00 0.00 0.00 0.00 0.00 0.00
0.12 0.12 0.15 0.18 0.19 0.22 0.25 0.33 0.43 0.50 0.48 0.79 0.71 0.55 0.84 0.73 0.22 0.03 0.05 0.09 0.10 0.11 0.11 0.08 0.16 0.13 0.16 0.23 0.24 0.17 0.10 0.08 0.05 0.04 0.02 0.11 0.25 0.27 0.22 0.14 0.04 0.00 0.00 0.00 0.00 0.00 0.00
0.09 0.09 0.10 0.11 0.14 0.17 0.21 0.25 0.32 0.43 0.64 0.88 0.97 0.47 0.77 1.02 0.28 0.12 0.12 0.10 0.09 0.15 0.22 0.20 0.26 0.23 0.23 0.33 0.20 0.11 0.08 0.09 0.13 0.15 0.10 0.08 0.32 0.36 0.29 0.22 0.05 0.00 0.00 0.02 0.05 0.05 0.00
0.07 0.08 0.09 0.09 0.11 0.13 0.16 0.23 0.30 0.39 0.54 1.02 1.06 0.38 0.43 0.75 0.33 0.10 0.07 0.11 0.12 0.14 0.26 0.33 0.37 0.49 0.38 0.27 0.14 0.10 0.09 0.08 0.10 0.16 0.15 0.07 0.13 0.20 0.29 0.31 0.13 0.04 0.10 0.15 0.15 0.04 0.00
0.11 0.12 0.11 0.12 0.13 0.13 0.12 0.15 0.22 0.35 0.52 0.96 1.30 0.53 0.32 0.61 0.44 0.14 0.09 0.07 0.11 0.16 0.31 0.45 0.48 0.25 0.12 0.10 0.10 0.13 0.14 0.13 0.07 0.09 0.14 0.18 0.02 0.04 0.03 0.06 0.04 0.08 0.17 0.14 0.08 0.08 0.05

GFSGBSN_prec_precacc24_087.txt.gz
Total_Precipitation_Accumulation
0.01 0.02 0.02 0.02 0.02 0.02 0.02 0.02 0.01 0.01 0.00 0.00 0.00 0.00 0.00 0.00 0.00 0.00 0.00 0.00 0.00 0.00 0.00 0.00 0.00 0.00 0.00 0.00 0.00 0.00 0.00 0.00 0.00 0.00 0.00 0.00 0.00 0.00 0.00 0.00 0.00 0.00 0.00 0.00 0.00 0.00 0.00
0.02 0.02 0.03 0.02 0.02 0.02 0.01 0.01 0.01 0.01 0.01 0.01 0.00 0.00 0.00 0.00 0.00 0.00 0.00 0.00 0.00 0.00 0.00 0.00 0.00 0.00 0.00 0.00 0.00 0.00 0.00 0.00 0.00 0.00 0.00 0.00 0.00 0.00 0.00 0.00 0.00 0.00 0.00 0.00 0.00 0.00 0.00
0.02 0.03 0.02 0.03 0.03 0.03 0.02 0.01 0.01 0.01 0.02 0.01 0.01 0.00 0.00 0.00 0.00 0.00 0.00 0.00 0.00 0.00 0.00 0.00 0.00 0.00 0.00 0.00 0.00 0.00 0.00 0.00 0.00 0.00 0.00 0.00 0.00 0.00 0.00 0.00 0.00 0.00 0.00 0.00 0.00 0.00 0.00
0.03 0.03 0.02 0.03 0.04 0.03 0.02 0.02 0.02 0.01 0.02 0.01 0.01 0.00 0.00 0.00 0.00 0.00 0.00 0.00 0.00 0.00 0.00 0.00 0.00 0.01 0.00 0.00 0.00 0.00 0.00 0.00 0.00 0.00 0.00 0.00 0.00 0.00 0.00 0.00 0.00 0.00 0.00 0.00 0.00 0.00 0.00
0.02 0.03 0.04 0.03 0.04 0.03 0.03 0.02 0.02 0.02 0.02 0.01 0.01 0.01 0.01 0.00 0.00 0.00 0.00 0.00 0.00 0.00 0.00 0.00 0.00 0.00 0.00 0.00 0.00 0.00 0.00 0.00 0.00 0.00 0.00 0.00 0.00 0.00 0.00 0.00 0.00 0.00 0.00 0.00 0.00 0.00 0.00
0.03 0.03 0.03 0.03 0.03 0.03 0.03 0.03 0.03 0.02 0.02 0.03 0.02 0.03 0.00 0.00 0.00 0.00 0.00 0.00 0.00 0.00 0.00 0.00 0.00 0.00 0.00 0.00 0.00 0.00 0.00 0.00 0.00 0.00 0.00 0.00 0.00 0.00 0.00 0.00 0.00 0.00 0.00 0.00 0.00 0.00 0.00
0.04 0.03 0.03 0.03 0.03 0.03 0.03 0.03 0.03 0.03 0.03 0.04 0.03 0.01 0.00 0.00 0.00 0.00 0.00 0.00 0.00 0.00 0.00 0.00 0.00 0.00 0.00 0.00 0.00 0.00 0.00 0.00 0.00 0.00 0.00 0.00 0.00 0.00 0.00 0.00 0.00 0.00 0.00 0.00 0.00 0.00 0.00
0.03 0.04 0.03 0.03 0.03 0.03 0.03 0.03 0.04 0.05 0.04 0.03 0.01 0.01 0.00 0.00 0.00 0.00 0.00 0.00 0.00 0.01 0.01 0.00 0.00 0.00 0.00 0.00 0.00 0.00 0.00 0.00 0.00 0.01 0.00 0.01 0.00 0.00 0.00 0.00 0.00 0.00 0.00 0.00 0.00 0.00 0.00
0.05 0.05 0.04 0.03 0.02 0.03 0.04 0.05 0.05 0.04 0.03 0.02 0.01 0.01 0.00 0.00 0.00 0.00 0.00 0.00 0.00 0.00 0.00 0.00 0.00 0.00 0.00 0.00 0.00 0.00 0.00 0.00 0.00 0.01 0.02 0.01 0.00 0.00 0.00 0.00 0.00 0.00 0.00 0.00 0.00 0.00 0.00
0.05 0.04 0.03 0.03 0.04 0.05 0.05 0.04 0.03 0.02 0.02 0.01 0.01 0.01 0.01 0.01 0.00 0.00 0.00 0.00 0.00 0.00 0.00 0.00 0.00 0.00 0.00 0.00 0.00 0.00 0.00 0.00 0.00 0.00 0.01 0.01 0.00 0.00 0.02 0.01 0.00 0.00 0.00 0.00 0.01 0.03 0.04
0.04 0.05 0.06 0.05 0.05 0.05 0.04 0.03 0.02 0.02 0.01 0.02 0.03 0.03 0.02 0.05 0.01 0.00 0.00 0.00 0.00 0.01 0.00 0.00 0.00 0.00 0.00 0.00 0.00 0.00 0.00 0.00 0.00 0.00 0.00 0.01 0.00 0.01 0.02 0.01 0.00 0.01 0.00 0.02 0.06 0.02 0.01
0.05 0.05 0.04 0.04 0.04 0.05 0.04 0.03 0.04 0.02 0.02 0.02 0.03 0.03 0.05 0.03 0.02 0.00 0.00 0.00 0.02 0.04 0.00 0.00 0.00 0.00 0.00 0.00 0.00 0.00 0.00 0.00 0.00 0.00 0.00 0.00 0.00 0.01 0.01 0.00 0.02 0.03 0.03 0.11 0.09 0.07 0.11
0.05 0.07 0.07 0.07 0.07 0.05 0.05 0.05 0.05 0.03 0.02 0.03 0.03 0.03 0.06 0.03 0.02 0.00 0.00 0.00 0.06 0.02 0.00 0.00 0.00 0.00 0.00 0.00 0.00 0.00 0.00 0.00 0.00 0.02 0.02 0.00 0.00 0.00 0.00 0.03 0.01 0.03 0.11 0.26 0.18 0.15 0.09
0.09 0.08 0.07 0.06 0.05 0.04 0.04 0.05 0.05 0.04 0.03 0.04 0.05 0.05 0.02 0.02 0.03 0.01 0.03 0.06 0.06 0.00 0.00 0.00 0.00 0.00 0.00 0.00 0.00 0.00 0.00 0.00 0.00 0.00 0.01 0.04 0.02 0.00 0.00 0.00 0.00 0.02 0.14 0.21 0.12 0.06 0.03
0.04 0.04 0.03 0.03 0.03 0.04 0.05 0.05 0.06 0.04 0.05 0.07 0.11 0.05 0.04 0.00 0.02 0.07 0.14 0.11 0.01 0.00 0.00 0.00 0.00 0.00 0.00 0.00 0.00 0.00 0.00 0.00 0.00 0.00 0.00 0.00 0.01 0.00 0.00 0.00 0.00 0.01 0.04 0.04 0.18 0.24 0.18
0.07 0.08 0.10 0.09 0.08 0.08 0.08 0.07 0.06 0.05 0.07 0.16 0.14 0.14 0.04 0.01 0.10 0.21 0.32 0.09 0.00 0.00 0.00 0.00 0.00 0.00 0.00 0.00 0.00 0.00 0.03 0.01 0.01 0.00 0.00 0.00 0.00 0.00 0.00 0.00 0.00 0.00 0.03 0.24 0.46 0.26 0.14
0.06 0.06 0.06 0.06 0.06 0.06 0.07 0.07 0.07 0.06 0.12 0.20 0.20 0.27 0.07 0.03 0.31 0.46 0.38 0.05 0.00 0.00 0.00 0.01 0.02 0.00 0.00 0.00 0.00 0.00 0.09 0.05 0.00 0.00 0.00 0.00 0.00 0.00 0.00 0.00 0.00 0.00 0.03 0.24 0.35 0.13 0.14
0.08 0.08 0.08 0.08 0.08 0.08 0.09 0.08 0.09 0.11 0.19 0.19 0.38 0.42 0.21 0.39 0.49 0.40 0.22 0.03 0.00 0.00 0.00 0.00 0.01 0.00 0.00 0.00 0.00 0.00 0.02 0.01 0.00 0.00 0.00 0.01 0.01 0.01 0.00 0.00 0.00 0.00 0.00 0.05 0.25 0.22 0.13
0.07 0.06 0.06 0.06 0.08 0.10 0.08 0.09 0.14 0.16 0.24 0.32 0.61 0.37 0.35 0.64 0.51 0.22 0.14 0.05 0.01 0.00 0.00 0.00 0.00 0.01 0.00 0.00 0.00 0.00 0.00 0.00 0.00 0.00 0.00 0.00 0.01 0.01 0.04 0.05 0.03 0.04 0.03 0.10 0.11 0.16 0.34
0.07 0.07 0.07 0.07 0.07 0.07 0.09 0.15 0.17 0.21 0.28 0.43 0.85 0.48 0.49 0.93 0.62 0.19 0.19 0.13 0.06 0.00 0.00 0.00 0.00 0.00 0.00 0.00 0.00 0.00 0.00 0.00 0.00 0.00 0.00 0.01 0.02 0.06 0.14 0.24 0.22 0.19 0.16 0.13 0.26 0.31 0.11
0.05 0.06 0.06 0.06 0.07 0.09 0.09 0.11 0.17 0.22 0.31 0.52 0.82 0.49 0.27 0.52 0.48 0.30 0.22 0.28 0.11 0.05 0.02 0.00 0.00 0.00 0.00 0.00 0.00 0.00 0.00 0.00 0.00 0.00 0.00 0.01 0.02 0.02 0.04 0.04 0.07 0.17 0.17 0.34 0.33 0.22 0.26
0.06 0.06 0.05 0.06 0.08 0.08 0.07 0.09 0.13 0.24 0.42 0.70 0.77 0.22 0.19 0.17 0.15 0.28 0.30 0.29 0.14 0.06 0.04 0.04 0.01 0.01 0.01 0.00 0.00 0.00 0.01 0.02 0.01 0.00 0.00 0.00 0.00 0.00 0.00 0.01 0.01 0.00 0.01 0.10 0.23 0.30 0.25
0.16 0.18 0.20 0.22 0.25 0.29 0.27 0.23 0.20 0.27 0.62 0.82 0.52 0.16 0.32 0.18 0.05 0.27 0.33 0.18 0.15 0.10 0.07 0.04 0.02 0.03 0.03 0.01 0.00 0.00 0.02 0.01 0.01 0.01 0.01 0.00 0.02 0.01 0.00 0.00 0.00 0.00 0.00 0.00 0.01 0.05 0.08
0.18 0.22 0.26 0.29 0.34 0.38 0.40 0.36 0.32 0.36 0.50 0.55 0.32 0.16 0.31 0.28 0.14 0.08 0.08 0.12 0.10 0.06 0.09 0.06 0.07 0.12 0.06 0.04 0.03 0.03 0.01 0.01 0.01 0.00 0.01 0.01 0.01 0.03 0.02 0.00 0.01 0.00 0.00 0.00 0.00 0.01 0.00
0.16 0.17 0.20 0.20 0.23 0.26 0.31 0.37 0.33 0.29 0.30 0.42 0.28 0.34 0.31 0.17 0.08 0.10 0.11 0.09 0.08 0.09 0.09 0.09 0.12 0.10 0.11 0.14 0.22 0.11 0.05 0.04 0.01 0.00 0.00 0.01 0.01 0.05 0.03 0.01 0.00 0.00 0.00 0.00 0.00 0.01 0.00
0.11 0.09 0.11 0.15 0.18 0.20 0.24 0.31 0.39 0.42 0.38 0.43 0.31 0.29 0.48 0.48 0.12 0.03 0.05 0.09 0.10 0.11 0.11 0.08 0.19 0.15 0.17 0.23 0.24 0.20 0.10 0.07 0.04 0.04 0.01 0.02 0.03 0.05 0.06 0.05 0.00 0.00 0.00 0.00 0.00 0.01 0.00
0.10 0.08 0.09 0.10 0.12 0.15 0.20 0.24 0.31 0.42 0.57 0.63 0.54 0.26 0.46 0.53 0.16 0.12 0.11 0.10 0.10 0.15 0.22 0.20 0.27 0.25 0.24 0.33 0.22 0.11 0.08 0.08 0.12 0.16 0.11 0.06 0.08 0.09 0.09 0.09 0.02 0.00 0.00 0.02 0.04 0.04 0.00
0.07 0.07 0.08 0.08 0.10 0.11 0.14 0.20 0.28 0.37 0.56 0.97 0.87 0.24 0.30 0.42 0.18 0.07 0.05 0.10 0.12 0.15 0.29 0.35 0.37 0.50 0.40 0.28 0.14 0.10 0.09 0.08 0.10 0.16 0.17 0.13 0.10 0.08 0.08 0.12 0.03 0.00 0.03 0.10 0.14 0.04 0.02
0.09 0.09 0.09 0.10 0.12 0.12 0.10 0.13 0.20 0.33 0.52 0.98 1.28 0.45 0.25 0.41 0.24 0.06 0.04 0.05 0.08 0.15 0.30 0.45 0.54 0.36 0.27 0.25 0.15 0.14 0.14 0.14 0.09 0.10 0.19 0.37 0.16 0.10 0.02 0.02 0.06 0.11 0.11 0.06 0.06 0.11 0.09

GFSGBSN_prec_precacc24_090.txt.gz
Total_Precipitation_Accumulation
0.01 0.01 0.01 0.01 0.01 0.01 0.01 0.02 0.01 0.01 0.00 0.00 0.00 0.00 0.00 0.00 0.00 0.00 0.00 0.00 0.00 0.00 0.00 0.00 0.00 0.00 0.00 0.00 0.00 0.00 0.00 0.00 0.00 0.00 0.00 0.00 0.00 0.00 0.00 0.00 0.00 0.00 0.00 0.00 0.00 0.00 0.00
0.02 0.02 0.02 0.02 0.02 0.02 0.01 0.01 0.01 0.01 0.01 0.01 0.00 0.01 0.00 0.00 0.00 0.00 0.00 0.00 0.00 0.00 0.00 0.00 0.00 0.00 0.00 0.00 0.00 0.00 0.00 0.00 0.00 0.00 0.00 0.00 0.00 0.00 0.00 0.00 0.00 0.00 0.00 0.00 0.00 0.00 0.00
0.02 0.03 0.02 0.02 0.03 0.02 0.01 0.01 0.02 0.02 0.01 0.01 0.01 0.00 0.00 0.00 0.00 0.00 0.00 0.00 0.00 0.00 0.00 0.00 0.00 0.00 0.00 0.00 0.00 0.00 0.00 0.00 0.00 0.00 0.00 0.00 0.00 0.00 0.00 0.00 0.00 0.00 0.00 0.00 0.00 0.00 0.00
0.02 0.03 0.02 0.03 0.03 0.02 0.02 0.02 0.02 0.02 0.01 0.01 0.01 0.01 0.00 0.00 0.00 0.00 0.00 0.00 0.00 0.00 0.00 0.00 0.00 0.01 0.00 0.00 0.00 0.00 0.00 0.00 0.00 0.00 0.00 0.00 0.00 0.00 0.00 0.00 0.00 0.00 0.00 0.00 0.00 0.00 0.00
0.02 0.02 0.03 0.03 0.03 0.03 0.02 0.02 0.02 0.01 0.02 0.01 0.01 0.02 0.01 0.00 0.00 0.00 0.00 0.00 0.00 0.00 0.00 0.00 0.00 0.00 0.00 0.00 0.00 0.00 0.00 0.00 0.00 0.00 0.00 0.00 0.00 0.00 0.00 0.00 0.00 0.00 0.00 0.00 0.00 0.00 0.00
0.02 0.03 0.03 0.03 0.03 0.02 0.02 0.03 0.03 0.02 0.02 0.02 0.02 0.02 0.00 0.00 0.00 0.00 0.00 0.00 0.00 0.00 0.00 0.00 0.00 0.00 0.00 0.00 0.00 0.00 0.00 0.00 0.00 0.00 0.00 0.00 0.00 0.00 0.00 0.00 0.00 0.00 0.00 0.00 0.00 0.00 0.00
0.03 0.03 0.03 0.02 0.02 0.02 0.03 0.03 0.03 0.03 0.03 0.03 0.03 0.01 0.00 0.00 0.00 0.00 0.00 0.00 0.00 0.00 0.00 0.00 0.00 0.00 0.00 0.00 0.00 0.00 0.00 0.00 0.00 0.00 0.00 0.00 0.00 0.00 0.00 0.00 0.00 0.00 0.00 0.00 0.00 0.00 0.00
0.03 0.03 0.03 0.03 0.03 0.03 0.03 0.03 0.04 0.04 0.04 0.03 0.01 0.00 0.00 0.00 0.00 0.00 0.00 0.00 0.00 0.02 0.02 0.00 0.00 0.00 0.00 0.00 0.00 0.00 0.00 0.00 0.00 0.01 0.00 0.01 0.00 0.00 0.00 0.00 0.00 0.00 0.00 0.00 0.00 0.00 0.00
0.04 0.04 0.04 0.03 0.02 0.03 0.04 0.05 0.04 0.04 0.03 0.02 0.01 0.01 0.00 0.00 0.00 0.00 0.00 0.00 0.00 0.00 0.01 0.00 0.00 0.00 0.00 0.00 0.00 0.00 0.00 0.00 0.00 0.01 0.02 0.01 0.00 0.00 0.00 0.00 0.00 0.00 0.00 0.00 0.00 0.00 0.00
0.04 0.03 0.02 0.03 0.04 0.05 0.05 0.04 0.03 0.02 0.01 0.01 0.01 0.01 0.00 0.01 0.00 0.00 0.00 0.00 0.00 0.00 0.02 0.00 0.00 0.00 0.00 0.00 0.00 0.00 0.00 0.00 0.00 0.00 0.01 0.01 0.00 0.00 0.02 0.01 0.00 0.00 0.00 0.00 0.01 0.03 0.04
0.03 0.03 0.05 0.05 0.05 0.05 0.03 0.03 0.02 0.02 0.01 0.02 0.02 0.02 0.02 0.04 0.01 0.00 0.00 0.00 0.00 0.04 0.03 0.00 0.00 0.00 0.00 0.00 0.00 0.00 0.00 0.00 0.00 0.00 0.00 0.01 0.00 0.01 0.02 0.01 0.00 0.01 0.00 0.02 0.06 0.02 0.01
0.04 0.04 0.04 0.03 0.04 0.04 0.04 0.03 0.03 0.02 0.02 0.02 0.03 0.03 0.04 0.02 0.02 0.00 0.00 0.00 0.02 0.09 0.02 0.00 0.00 0.00 0.00 0.00 0.00 0.00 0.00 0.00 0.00 0.00 0.00 0.00 0.00 0.01 0.01 0.00 0.02 0.03 0.03 0.11 0.09 0.07 0.11
0.04 0.06 0.07 0.07 0.07 0.05 0.05 0.05 0.03 0.02 0.02 0.02 0.03 0.02 0.04 0.03 0.02 0.00 0.00 0.01 0.07 0.05 0.00 0.00 0.00 0.00 0.00 0.00 0.00 0.00 0.00 0.00 0.00 0.02 0.02 0.00 0.00 0.00 0.00 0.03 0.01 0.03 0.11 0.26 0.18 0.15 0.09
0.07 0.07 0.06 0.05 0.04 0.04 0.04 0.04 0.04 0.03 0.02 0.02 0.04 0.03 0.01 0.01 0.03 0.01 0.03 0.07 0.07 0.00 0.00 0.00 0.00 0.00 0.00 0.00 0.00 0.00 0.00 0.00 0.00 0.00 0.01 0.04 0.02 0.00 0.00 0.00 0.00 0.02 0.14 0.21 0.12 0.06 0.04
0.03 0.03 0.02 0.03 0.03 0.04 0.04 0.05 0.04 0.04 0.05 0.06 0.07 0.02 0.03 0.00 0.02 0.07 0.14 0.13 0.01 0.00 0.00 0.00 0.00 0.01 0.00 0.00 0.00 0.00 0.00 0.00 0.00 0.00 0.00 0.00 0.01 0.00 0.00 0.00 0.00 0.01 0.04 0.04 0.18 0.24 0.19
0.05 0.06 0.08 0.08 0.08 0.08 0.08 0.07 0.06 0.05 0.06 0.13 0.09 0.08 0.02 0.01 0.10 0.21 0.32 0.10 0.00 0.00 0.00 0.02 0.11 0.03 0.01 0.00 0.00 0.00 0.04 0.02 0.01 0.00 0.00 0.00 0.00 0.00 0.00 0.00 0.00 0.00 0.03 0.24 0.47 0.31 0.17
0.05 0.05 0.05 0.05 0.06 0.06 0.07 0.07 0.07 0.06 0.10 0.15 0.10 0.13 0.02 0.04 0.32 0.48 0.38 0.06 0.00 0.00 0.00 0.06 0.20 0.10 0.01 0.00 0.00 0.04 0.11 0.07 0.01 0.00 0.00 0.00 0.00 0.00 0.00 0.00 0.00 0.00 0.03 0.24 0.35 0.14 0.19
0.07 0.07 0.08 0.08 0.08 0.08 0.08 0.08 0.09 0.12 0.16 0.12 0.18 0.22 0.15 0.41 0.54 0.48 0.22 0.04 0.00 0.00 0.00 0.03 0.16 0.15 0.02 0.00 0.00 0.02 0.04 0.02 0.00 0.00 0.00 0.01 0.01 0.01 0.00 0.00 0.00 0.00 0.00 0.05 0.26 0.23 0.15
0.07 0.06 0.06 0.06 0.08 0.10 0.08 0.09 0.14 0.18 0.19 0.20 0.38 0.19 0.21 0.67 0.67 0.27 0.14 0.05 0.01 0.00 0.00 0.01 0.05 0.17 0.05 0.01 0.01 0.00 0.01 0.01 0.00 0.00 0.00 0.00 0.01 0.01 0.05 0.06 0.03 0.04 0.03 0.10 0.14 0.23 0.38
0.07 0.07 0.07 0.07 0.07 0.06 0.08 0.14 0.16 0.22 0.25 0.28 0.48 0.31 0.22 0.76 0.69 0.26 0.22 0.15 0.08 0.01 0.01 0.01 0.03 0.05 0.09 0.02 0.01 0.00 0.00 0.01 0.00 0.00 0.00 0.00 0.01 0.05 0.11 0.24 0.22 0.19 0.16 0.13 0.27 0.34 0.17
0.06 0.06 0.05 0.06 0.07 0.09 0.08 0.10 0.16 0.22 0.31 0.31 0.36 0.26 0.18 0.40 0.45 0.31 0.33 0.44 0.25 0.11 0.03 0.02 0.07 0.07 0.04 0.04 0.01 0.01 0.00 0.00 0.00 0.00 0.00 0.01 0.02 0.02 0.04 0.04 0.07 0.17 0.17 0.34 0.33 0.22 0.29
0.06 0.06 0.05 0.05 0.07 0.06 0.06 0.07 0.11 0.23 0.40 0.40 0.33 0.11 0.13 0.16 0.15 0.28 0.37 0.46 0.25 0.10 0.04 0.05 0.02 0.01 0.01 0.01 0.01 0.00 0.01 0.02 0.01 0.00 0.00 0.00 0.00 0.00 0.00 0.01 0.00 0.00 0.01 0.10 0.23 0.30 0.25
0.15 0.17 0.18 0.20 0.23 0.26 0.25 0.20 0.19 0.29 0.55 0.47 0.23 0.11 0.29 0.16 0.05 0.25 0.34 0.21 0.17 0.12 0.09 0.05 0.02 0.03 0.03 0.01 0.00 0.00 0.02 0.01 0.01 0.01 0.00 0.00 0.02 0.01 0.00 0.00 0.00 0.00 0.00 0.00 0.01 0.05 0.08
0.15 0.18 0.22 0.27 0.33 0.35 0.37 0.35 0.32 0.37 0.44 0.30 0.20 0.17 0.27 0.21 0.13 0.07 0.08 0.12 0.10 0.06 0.09 0.06 0.07 0.12 0.06 0.04 0.03 0.03 0.01 0.01 0.01 0.00 0.00 0.00 0.01 0.03 0.02 0.00 0.00 0.00 0.00 0.00 0.00 0.01 0.00
0.12 0.13 0.16 0.18 0.19 0.22 0.28 0.35 0.31 0.28 0.29 0.28 0.19 0.34 0.30 0.15 0.06 0.09 0.10 0.09 0.08 0.09 0.09 0.09 0.12 0.10 0.11 0.14 0.22 0.11 0.05 0.04 0.01 0.00 0.00 0.00 0.00 0.04 0.03 0.01 0.00 0.00 0.00 0.00 0.00 0.01 0.00
0.08 0.07 0.10 0.12 0.14 0.16 0.19 0.25 0.34 0.38 0.33 0.30 0.18 0.23 0.41 0.43 0.09 0.02 0.04 0.08 0.09 0.11 0.11 0.08 0.19 0.15 0.17 0.23 0.23 0.18 0.10 0.07 0.04 0.03 0.01 0.01 0.01 0.04 0.05 0.04 0.00 0.00 0.00 0.00 0.00 0.01 0.00
0.08 0.08 0.09 0.09 0.09 0.12 0.16 0.19 0.24 0.33 0.45 0.45 0.33 0.16 0.33 0.42 0.12 0.10 0.08 0.09 0.09 0.15 0.22 0.20 0.27 0.25 0.24 0.33 0.22 0.09 0.07 0.08 0.12 0.16 0.11 0.05 0.05 0.05 0.06 0.07 0.01 0.00 0.00 0.01 0.04 0.04 0.00
0.07 0.08 0.08 0.07 0.08 0.09 0.12 0.18 0.24 0.29 0.40 0.69 0.60 0.16 0.22 0.31 0.08 0.04 0.04 0.09 0.11 0.15 0.29 0.35 0.34 0.48 0.40 0.27 0.13 0.10 0.09 0.08 0.10 0.16 0.17 0.12 0.10 0.07 0.07 0.12 0.03 0.00 0.03 0.10 0.14 0.04 0.02
0.09 0.10 0.09 0.07 0.09 0.09 0.09 0.11 0.17 0.28 0.42 0.78 0.95 0.33 0.20 0.29 0.14 0.04 0.03 0.04 0.08 0.15 0.30 0.45 0.53 0.36 0.28 0.29 0.18 0.16 0.15 0.14 0.09 0.10 0.19 0.38 0.16 0.11 0.03 0.03 0.06 0.11 0.11 0.07 0.06 0.10 0.09

GFSGBSN_prec_precacc24_093.txt.gz
Total_Precipitation_Accumulation
0.01 0.01 0.01 0.01 0.01 0.01 0.01 0.01 0.00 0.00 0.00 0.00 0.00 0.00 0.00 0.00 0.00 0.00 0.00 0.00 0.00 0.00 0.00 0.00 0.00 0.00 0.00 0.00 0.00 0.00 0.00 0.00 0.00 0.00 0.00 0.00 0.00 0.00 0.00 0.00 0.00 0.00 0.00 0.00 0.00 0.00 0.00
0.02 0.01 0.02 0.02 0.01 0.01 0.01 0.01 0.01 0.01 0.01 0.01 0.00 0.01 0.00 0.00 0.00 0.00 0.00 0.00 0.00 0.00 0.00 0.00 0.00 0.00 0.00 0.00 0.00 0.00 0.00 0.00 0.00 0.00 0.00 0.00 0.00 0.00 0.00 0.00 0.00 0.00 0.00 0.00 0.00 0.00 0.00
0.02 0.03 0.02 0.02 0.02 0.02 0.01 0.01 0.02 0.02 0.01 0.01 0.01 0.00 0.00 0.00 0.00 0.00 0.00 0.00 0.00 0.00 0.00 0.00 0.00 0.00 0.00 0.00 0.00 0.00 0.00 0.00 0.00 0.00 0.00 0.00 0.00 0.00 0.00 0.00 0.00 0.00 0.00 0.00 0.00 0.00 0.00
0.02 0.02 0.02 0.02 0.03 0.02 0.01 0.02 0.01 0.01 0.01 0.01 0.01 0.01 0.00 0.00 0.00 0.00 0.00 0.00 0.00 0.00 0.00 0.00 0.00 0.01 0.00 0.00 0.00 0.00 0.00 0.00 0.00 0.00 0.00 0.00 0.00 0.00 0.00 0.00 0.00 0.00 0.00 0.00 0.00 0.00 0.00
0.01 0.01 0.02 0.02 0.02 0.02 0.02 0.01 0.01 0.01 0.01 0.01 0.01 0.01 0.01 0.00 0.00 0.00 0.00 0.00 0.00 0.00 0.00 0.00 0.00 0.00 0.00 0.00 0.00 0.00 0.00 0.00 0.00 0.00 0.00 0.00 0.00 0.00 0.00 0.00 0.00 0.00 0.00 0.00 0.00 0.00 0.00
0.02 0.03 0.02 0.03 0.02 0.02 0.02 0.02 0.03 0.01 0.01 0.02 0.02 0.02 0.00 0.00 0.00 0.00 0.00 0.00 0.00 0.00 0.00 0.00 0.00 0.00 0.00 0.00 0.00 0.00 0.00 0.00 0.00 0.00 0.00 0.00 0.00 0.00 0.00 0.00 0.00 0.00 0.00 0.00 0.00 0.00 0.00
0.02 0.02 0.02 0.02 0.02 0.02 0.03 0.02 0.02 0.02 0.02 0.03 0.03 0.00 0.00 0.00 0.00 0.00 0.00 0.00 0.00 0.00 0.00 0.00 0.00 0.00 0.00 0.00 0.00 0.00 0.00 0.00 0.00 0.00 0.00 0.00 0.00 0.00 0.00 0.00 0.00 0.00 0.00 0.00 0.00 0.00 0.00
0.02 0.03 0.03 0.03 0.03 0.03 0.03 0.03 0.03 0.03 0.03 0.03 0.01 0.00 0.00 0.00 0.00 0.00 0.00 0.00 0.00 0.02 0.04 0.00 0.00 0.00 0.00 0.00 0.00 0.00 0.00 0.00 0.00 0.01 0.00 0.01 0.00 0.00 0.00 0.00 0.00 0.00 0.00 0.00 0.00 0.00 0.00
0.03 0.03 0.03 0.02 0.02 0.02 0.04 0.04 0.04 0.03 0.03 0.01 0.01 0.00 0.00 0.00 0.00 0.00 0.00 0.00 0.00 0.00 0.02 0.00 0.00 0.00 0.00 0.00 0.00 0.00 0.00 0.00 0.00 0.02 0.02 0.01 0.00 0.00 0.00 0.00 0.00 0.00 0.00 0.00 0.00 0.00 0.00
0.03 0.02 0.02 0.02 0.03 0.04 0.04 0.04 0.02 0.01 0.01 0.01 0.01 0.01 0.00 0.00 0.00 0.00 0.00 0.00 0.00 0.00 0.05 0.00 0.00 0.00 0.00 0.00 0.00 0.00 0.00 0.00 0.00 0.00 0.01 0.01 0.00 0.00 0.02 0.01 0.00 0.00 0.00 0.00 0.01 0.03 0.04
0.02 0.02 0.03 0.04 0.04 0.04 0.03 0.02 0.02 0.02 0.01 0.02 0.02 0.02 0.01 0.02 0.01 0.00 0.00 0.00 0.00 0.04 0.06 0.00 0.00 0.00 0.00 0.00 0.00 0.00 0.00 0.00 0.00 0.00 0.00 0.01 0.00 0.01 0.02 0.01 0.00 0.01 0.00 0.02 0.06 0.02 0.01
0.04 0.03 0.02 0.02 0.03 0.03 0.03 0.02 0.03 0.01 0.01 0.02 0.02 0.02 0.02 0.01 0.02 0.00 0.00 0.00 0.02 0.10 0.03 0.00 0.01 0.01 0.00 0.00 0.00 0.00 0.00 0.00 0.00 0.00 0.00 0.00 0.00 0.01 0.01 0.00 0.02 0.03 0.03 0.11 0.09 0.07 0.11
0.04 0.06 0.06 0.06 0.06 0.04 0.05 0.05 0.03 0.02 0.02 0.02 0.03 0.02 0.01 0.02 0.02 0.00 0.00 0.01 0.06 0.05 0.00 0.00 0.01 0.00 0.00 0.00 0.00 0.00 0.00 0.00 0.00 0.01 0.01 0.00 0.00 0.00 0.00 0.03 0.01 0.03 0.11 0.26 0.18 0.15 0.09
0.06 0.04 0.03 0.03 0.03 0.04 0.04 0.04 0.04 0.03 0.03 0.02 0.03 0.02 0.00 0.00 0.03 0.01 0.03 0.07 0.06 0.00 0.00 0.00 0.00 0.00 0.02 0.00 0.00 0.00 0.00 0.00 0.00 0.00 0.01 0.03 0.02 0.00 0.00 0.00 0.00 0.02 0.14 0.21 0.12 0.06 0.04
0.03 0.02 0.01 0.02 0.03 0.03 0.03 0.04 0.04 0.04 0.04 0.05 0.05 0.01 0.02 0.00 0.01 0.07 0.14 0.13 0.01 0.01 0.01 0.02 0.01 0.06 0.11 0.00 0.00 0.00 0.00 0.00 0.00 0.00 0.00 0.00 0.00 0.00 0.00 0.00 0.00 0.01 0.04 0.04 0.18 0.24 0.19
0.04 0.04 0.05 0.05 0.05 0.06 0.07 0.06 0.06 0.04 0.06 0.11 0.06 0.04 0.01 0.01 0.09 0.18 0.30 0.10 0.00 0.00 0.00 0.04 0.26 0.19 0.15 0.00 0.00 0.01 0.06 0.03 0.01 0.00 0.00 0.00 0.00 0.00 0.00 0.00 0.00 0.00 0.03 0.24 0.47 0.31 0.17
0.04 0.04 0.04 0.04 0.05 0.06 0.06 0.07 0.07 0.05 0.10 0.10 0.06 0.07 0.01 0.03 0.28 0.37 0.35 0.05 0.00 0.00 0.02 0.11 0.35 0.28 0.18 0.03 0.01 0.09 0.14 0.08 0.01 0.00 0.00 0.00 0.00 0.00 0.00 0.00 0.00 0.00 0.03 0.24 0.35 0.14 0.19
0.05 0.05 0.06 0.07 0.08 0.08 0.08 0.08 0.09 0.12 0.14 0.08 0.10 0.11 0.11 0.39 0.46 0.38 0.22 0.04 0.00 0.00 0.00 0.04 0.21 0.36 0.24 0.09 0.04 0.07 0.07 0.03 0.01 0.00 0.00 0.01 0.01 0.01 0.00 0.00 0.00 0.00 0.00 0.05 0.26 0.23 0.16
0.06 0.05 0.05 0.05 0.07 0.09 0.07 0.09 0.13 0.17 0.16 0.15 0.29 0.09 0.09 0.63 0.65 0.25 0.11 0.04 0.01 0.00 0.00 0.01 0.07 0.28 0.29 0.13 0.05 0.04 0.05 0.02 0.00 0.00 0.00 0.00 0.01 0.01 0.07 0.07 0.03 0.04 0.03 0.10 0.14 0.24 0.39
0.06 0.07 0.07 0.06 0.06 0.06 0.08 0.13 0.14 0.20 0.22 0.19 0.33 0.16 0.07 0.46 0.61 0.26 0.23 0.15 0.10 0.02 0.01 0.02 0.05 0.22 0.28 0.16 0.05 0.03 0.10 0.03 0.00 0.00 0.00 0.01 0.01 0.04 0.10 0.24 0.22 0.19 0.16 0.13 0.27 0.34 0.17
0.05 0.06 0.06 0.06 0.08 0.09 0.08 0.08 0.13 0.21 0.29 0.22 0.21 0.10 0.09 0.25 0.32 0.30 0.35 0.50 0.38 0.29 0.08 0.04 0.12 0.13 0.13 0.19 0.08 0.03 0.02 0.01 0.01 0.00 0.00 0.01 0.02 0.02 0.04 0.04 0.07 0.17 0.17 0.34 0.33 0.22 0.29
0.06 0.06 0.05 0.05 0.07 0.07 0.06 0.07 0.10 0.22 0.37 0.28 0.16 0.06 0.08 0.06 0.12 0.24 0.34 0.46 0.30 0.13 0.10 0.08 0.05 0.04 0.03 0.07 0.07 0.01 0.01 0.02 0.01 0.00 0.00 0.00 0.00 0.00 0.00 0.01 0.00 0.00 0.01 0.10 0.23 0.30 0.25
0.15 0.18 0.19 0.19 0.23 0.25 0.24 0.19 0.17 0.28 0.51 0.35 0.13 0.08 0.22 0.10 0.03 0.17 0.26 0.19 0.17 0.12 0.11 0.05 0.02 0.03 0.03 0.01 0.00 0.00 0.02 0.01 0.01 0.01 0.00 0.00 0.01 0.00 0.00 0.00 0.00 0.00 0.00 0.00 0.01 0.05 0.08
0.14 0.17 0.20 0.24 0.30 0.33 0.34 0.31 0.29 0.37 0.43 0.24 0.11 0.13 0.22 0.12 0.06 0.03 0.05 0.11 0.10 0.06 0.10 0.06 0.07 0.12 0.06 0.04 0.03 0.03 0.01 0.01 0.01 0.00 0.00 0.00 0.01 0.03 0.02 0.00 0.00 0.00 0.00 0.00 0.00 0.01 0.00
0.10 0.11 0.13 0.14 0.16 0.18 0.22 0.31 0.28 0.27 0.30 0.25 0.14 0.23 0.25 0.12 0.02 0.03 0.08 0.08 0.08 0.09 0.08 0.09 0.12 0.10 0.11 0.14 0.19 0.11 0.05 0.04 0.01 0.00 0.00 0.00 0.00 0.02 0.02 0.01 0.00 0.00 0.00 0.00 0.00 0.01 0.00
0.07 0.06 0.08 0.10 0.11 0.12 0.13 0.19 0.30 0.35 0.33 0.28 0.13 0.15 0.32 0.34 0.06 0.00 0.01 0.06 0.09 0.10 0.09 0.07 0.18 0.13 0.16 0.22 0.20 0.16 0.10 0.07 0.04 0.03 0.00 0.00 0.00 0.02 0.03 0.03 0.00 0.00 0.00 0.00 0.00 0.01 0.00
0.07 0.06 0.08 0.09 0.10 0.09 0.10 0.11 0.17 0.28 0.45 0.44 0.23 0.10 0.28 0.27 0.08 0.09 0.08 0.06 0.09 0.14 0.17 0.19 0.24 0.21 0.22 0.29 0.19 0.08 0.07 0.08 0.12 0.16 0.10 0.04 0.05 0.04 0.03 0.06 0.01 0.00 0.00 0.00 0.03 0.04 0.00
0.06 0.07 0.08 0.08 0.09 0.09 0.10 0.10 0.14 0.19 0.34 0.68 0.50 0.11 0.18 0.19 0.03 0.03 0.03 0.08 0.09 0.13 0.25 0.33 0.25 0.41 0.35 0.23 0.12 0.09 0.09 0.08 0.10 0.16 0.16 0.12 0.09 0.06 0.06 0.10 0.03 0.00 0.03 0.10 0.14 0.04 0.02
0.07 0.08 0.08 0.09 0.09 0.08 0.07 0.08 0.10 0.18 0.30 0.65 0.79 0.21 0.17 0.22 0.07 0.02 0.01 0.03 0.08 0.14 0.29 0.42 0.51 0.35 0.28 0.29 0.18 0.16 0.15 0.14 0.09 0.10 0.19 0.38 0.18 0.12 0.04 0.07 0.11 0.12 0.11 0.07 0.07 0.11 0.10

GFSGBSN_prec_precacc24_096.txt.gz
Total_Precipitation_Accumulation
0.01 0.01 0.01 0.01 0.01 0.01 0.01 0.01 0.00 0.00 0.00 0.00 0.00 0.00 0.00 0.00 0.00 0.00 0.00 0.00 0.00 0.00 0.00 0.00 0.00 0.00 0.00 0.00 0.00 0.00 0.00 0.00 0.00 0.00 0.00 0.00 0.00 0.00 0.00 0.00 0.00 0.00 0.00 0.00 0.00 0.00 0.00
0.01 0.01 0.01 0.01 0.01 0.01 0.01 0.01 0.00 0.01 0.01 0.01 0.00 0.01 0.00 0.00 0.00 0.00 0.00 0.00 0.00 0.00 0.00 0.00 0.00 0.01 0.00 0.00 0.00 0.00 0.00 0.00 0.00 0.00 0.00 0.00 0.00 0.00 0.00 0.00 0.00 0.00 0.00 0.00 0.00 0.00 0.00
0.01 0.02 0.02 0.02 0.02 0.01 0.01 0.01 0.01 0.01 0.01 0.01 0.01 0.00 0.00 0.00 0.00 0.00 0.00 0.00 0.00 0.00 0.00 0.00 0.00 0.01 0.00 0.00 0.00 0.00 0.00 0.00 0.00 0.00 0.00 0.00 0.00 0.00 0.00 0.00 0.00 0.00 0.00 0.00 0.00 0.00 0.00
0.01 0.01 0.01 0.02 0.02 0.01 0.01 0.01 0.01 0.01 0.01 0.01 0.00 0.01 0.00 0.00 0.00 0.00 0.00 0.00 0.00 0.00 0.00 0.00 0.00 0.01 0.00 0.00 0.00 0.00 0.00 0.00 0.00 0.00 0.00 0.00 0.00 0.00 0.00 0.00 0.00 0.00 0.00 0.00 0.00 0.00 0.00
0.01 0.01 0.02 0.02 0.02 0.01 0.01 0.01 0.01 0.01 0.01 0.01 0.01 0.01 0.01 0.00 0.00 0.00 0.00 0.00 0.00 0.00 0.00 0.00 0.00 0.00 0.00 0.00 0.00 0.00 0.00 0.00 0.00 0.00 0.00 0.00 0.00 0.00 0.00 0.00 0.00 0.00 0.00 0.00 0.00 0.00 0.00
0.01 0.02 0.02 0.02 0.02 0.02 0.02 0.02 0.02 0.01 0.01 0.01 0.01 0.01 0.00 0.00 0.00 0.00 0.00 0.00 0.00 0.00 0.00 0.00 0.01 0.00 0.00 0.00 0.00 0.00 0.00 0.00 0.00 0.00 0.00 0.00 0.00 0.00 0.00 0.00 0.00 0.00 0.00 0.00 0.00 0.00 0.00
0.02 0.02 0.02 0.02 0.02 0.02 0.02 0.02 0.02 0.02 0.02 0.02 0.02 0.00 0.00 0.00 0.00 0.00 0.00 0.00 0.00 0.00 0.00 0.00 0.00 0.00 0.00 0.00 0.00 0.00 0.00 0.00 0.00 0.00 0.00 0.00 0.00 0.00 0.00 0.00 0.00 0.00 0.00 0.00 0.00 0.00 0.00
0.01 0.02 0.02 0.02 0.02 0.02 0.02 0.03 0.03 0.03 0.02 0.02 0.01 0.00 0.00 0.00 0.00 0.00 0.00 0.00 0.00 0.03 0.04 0.00 0.00 0.00 0.00 0.00 0.00 0.00 0.00 0.00 0.00 0.01 0.01 0.01 0.01 0.00 0.00 0.00 0.00 0.01 0.00 0.00 0.00 0.00 0.00
0.02 0.03 0.02 0.01 0.01 0.02 0.03 0.04 0.04 0.02 0.01 0.01 0.00 0.00 0.00 0.00 0.00 0.00 0.00 0.00 0.00 0.00 0.02 0.00 0.00 0.00 0.00 0.00 0.00 0.00 0.00 0.00 0.00 0.02 0.03 0.02 0.01 0.00 0.00 0.00 0.00 0.00 0.00 0.00 0.00 0.00 0.00
0.02 0.01 0.01 0.01 0.02 0.04 0.04 0.03 0.02 0.01 0.01 0.01 0.01 0.01 0.00 0.00 0.00 0.00 0.00 0.00 0.00 0.00 0.05 0.00 0.00 0.01 0.02 0.00 0.00 0.00 0.00 0.00 0.00 0.00 0.01 0.02 0.00 0.00 0.03 0.02 0.00 0.00 0.00 0.00 0.01 0.03 0.04
0.01 0.01 0.02 0.02 0.03 0.03 0.02 0.02 0.01 0.01 0.01 0.02 0.02 0.02 0.01 0.01 0.01 0.00 0.00 0.00 0.00 0.05 0.06 0.00 0.00 0.01 0.01 0.01 0.00 0.00 0.00 0.00 0.00 0.00 0.00 0.01 0.00 0.01 0.02 0.01 0.00 0.01 0.00 0.02 0.06 0.02 0.01
0.03 0.02 0.01 0.01 0.02 0.02 0.02 0.02 0.02 0.01 0.01 0.01 0.02 0.02 0.01 0.00 0.01 0.00 0.00 0.00 0.02 0.10 0.03 0.00 0.01 0.01 0.02 0.00 0.00 0.00 0.00 0.00 0.00 0.00 0.00 0.00 0.00 0.01 0.02 0.00 0.02 0.03 0.03 0.11 0.09 0.07 0.11
0.02 0.04 0.05 0.05 0.04 0.02 0.03 0.04 0.02 0.01 0.02 0.02 0.02 0.02 0.00 0.00 0.01 0.00 0.00 0.01 0.06 0.05 0.00 0.00 0.01 0.00 0.02 0.00 0.01 0.00 0.00 0.00 0.00 0.01 0.01 0.00 0.00 0.00 0.00 0.03 0.01 0.03 0.11 0.26 0.18 0.15 0.09
0.03 0.03 0.02 0.02 0.01 0.02 0.03 0.03 0.03 0.03 0.02 0.02 0.02 0.01 0.00 0.00 0.01 0.01 0.02 0.06 0.06 0.00 0.01 0.00 0.00 0.01 0.07 0.07 0.03 0.00 0.00 0.00 0.00 0.00 0.01 0.02 0.01 0.00 0.00 0.00 0.00 0.02 0.14 0.21 0.12 0.06 0.04
0.03 0.02 0.01 0.01 0.02 0.02 0.02 0.03 0.03 0.03 0.04 0.05 0.04 0.00 0.01 0.00 0.01 0.06 0.13 0.12 0.01 0.02 0.03 0.02 0.01 0.11 0.22 0.09 0.06 0.00 0.00 0.00 0.00 0.00 0.00 0.00 0.00 0.00 0.00 0.00 0.00 0.01 0.04 0.04 0.18 0.24 0.19
0.03 0.03 0.04 0.04 0.04 0.04 0.04 0.04 0.04 0.04 0.06 0.10 0.03 0.03 0.01 0.00 0.05 0.14 0.25 0.09 0.00 0.00 0.00 0.05 0.31 0.24 0.25 0.11 0.08 0.05 0.07 0.03 0.01 0.00 0.00 0.00 0.00 0.00 0.00 0.00 0.00 0.00 0.03 0.24 0.47 0.31 0.17
0.03 0.03 0.03 0.03 0.04 0.04 0.04 0.05 0.06 0.06 0.10 0.08 0.03 0.04 0.00 0.02 0.22 0.30 0.26 0.05 0.00 0.00 0.02 0.13 0.38 0.32 0.27 0.19 0.16 0.18 0.20 0.09 0.01 0.00 0.00 0.00 0.00 0.00 0.00 0.00 0.00 0.00 0.03 0.24 0.35 0.14 0.19
0.04 0.04 0.05 0.06 0.06 0.07 0.07 0.07 0.09 0.12 0.13 0.05 0.08 0.08 0.09 0.34 0.40 0.32 0.15 0.03 0.01 0.00 0.00 0.04 0.23 0.41 0.34 0.27 0.22 0.34 0.18 0.08 0.01 0.00 0.02 0.02 0.01 0.01 0.00 0.00 0.00 0.00 0.00 0.05 0.26 0.23 0.16
0.06 0.04 0.05 0.05 0.05 0.07 0.05 0.08 0.13 0.17 0.13 0.12 0.25 0.07 0.06 0.51 0.58 0.21 0.06 0.01 0.01 0.00 0.00 0.01 0.07 0.36 0.46 0.37 0.28 0.27 0.12 0.05 0.01 0.00 0.01 0.01 0.03 0.04 0.13 0.09 0.03 0.04 0.03 0.10 0.14 0.24 0.39
0.05 0.05 0.06 0.06 0.05 0.04 0.05 0.11 0.14 0.18 0.18 0.14 0.29 0.13 0.04 0.35 0.47 0.24 0.21 0.11 0.09 0.02 0.06 0.06 0.11 0.38 0.45 0.36 0.17 0.19 0.16 0.05 0.05 0.01 0.00 0.01 0.02 0.07 0.13 0.25 0.22 0.19 0.16 0.13 0.27 0.34 0.17
0.06 0.06 0.06 0.06 0.07 0.08 0.06 0.07 0.13 0.19 0.24 0.16 0.17 0.07 0.07 0.19 0.25 0.21 0.32 0.48 0.41 0.31 0.16 0.11 0.17 0.19 0.20 0.32 0.17 0.13 0.16 0.09 0.02 0.03 0.03 0.02 0.02 0.03 0.04 0.04 0.07 0.17 0.17 0.34 0.33 0.22 0.29
0.06 0.06 0.05 0.05 0.07 0.07 0.06 0.06 0.09 0.20 0.31 0.23 0.14 0.04 0.05 0.05 0.09 0.17 0.23 0.32 0.29 0.14 0.12 0.09 0.05 0.05 0.04 0.09 0.12 0.05 0.05 0.10 0.04 0.02 0.04 0.03 0.00 0.00 0.00 0.01 0.00 0.00 0.01 0.10 0.23 0.30 0.25
0.09 0.14 0.17 0.18 0.23 0.25 0.24 0.19 0.17 0.27 0.48 0.30 0.10 0.05 0.16 0.07 0.01 0.08 0.16 0.12 0.13 0.11 0.11 0.05 0.02 0.03 0.03 0.01 0.00 0.00 0.02 0.01 0.01 0.01 0.00 0.00 0.01 0.00 0.00 0.00 0.00 0.00 0.00 0.00 0.01 0.05 0.08
0.08 0.13 0.17 0.21 0.28 0.32 0.33 0.30 0.27 0.37 0.42 0.21 0.08 0.09 0.16 0.08 0.02 0.01 0.01 0.04 0.08 0.06 0.09 0.05 0.07 0.12 0.05 0.04 0.03 0.03 0.01 0.01 0.01 0.00 0.00 0.00 0.01 0.02 0.01 0.00 0.00 0.00 0.00 0.00 0.00 0.01 0.00
0.07 0.09 0.11 0.11 0.12 0.16 0.22 0.28 0.25 0.25 0.29 0.20 0.10 0.18 0.17 0.08 0.01 0.00 0.00 0.02 0.05 0.07 0.07 0.09 0.12 0.10 0.10 0.13 0.18 0.09 0.04 0.04 0.01 0.00 0.00 0.00 0.00 0.02 0.01 0.01 0.00 0.00 0.00 0.00 0.00 0.01 0.00
0.05 0.05 0.07 0.08 0.09 0.11 0.11 0.15 0.24 0.30 0.32 0.22 0.09 0.12 0.23 0.20 0.03 0.00 0.00 0.00 0.02 0.07 0.07 0.06 0.16 0.11 0.13 0.19 0.17 0.14 0.09 0.07 0.04 0.02 0.00 0.00 0.00 0.02 0.02 0.03 0.00 0.00 0.00 0.00 0.00 0.01 0.00
0.06 0.05 0.07 0.07 0.08 0.10 0.08 0.08 0.12 0.20 0.38 0.38 0.14 0.08 0.25 0.21 0.02 0.06 0.07 0.05 0.04 0.08 0.14 0.17 0.17 0.16 0.14 0.23 0.17 0.07 0.06 0.08 0.12 0.15 0.09 0.03 0.04 0.03 0.02 0.04 0.01 0.00 0.00 0.00 0.04 0.04 0.00
0.05 0.06 0.07 0.07 0.08 0.09 0.08 0.07 0.08 0.12 0.26 0.60 0.47 0.09 0.16 0.14 0.01 0.00 0.01 0.06 0.07 0.11 0.22 0.30 0.15 0.29 0.24 0.17 0.10 0.08 0.09 0.08 0.10 0.16 0.16 0.12 0.09 0.06 0.05 0.09 0.03 0.00 0.02 0.09 0.15 0.05 0.03
0.04 0.06 0.07 0.08 0.09 0.08 0.07 0.06 0.07 0.11 0.20 0.56 0.77 0.22 0.16 0.20 0.03 0.01 0.00 0.01 0.04 0.12 0.23 0.31 0.48 0.34 0.27 0.27 0.17 0.16 0.15 0.14 0.09 0.11 0.19 0.38 0.18 0.12 0.06 0.10 0.14 0.13 0.11 0.08 0.08 0.12 0.13

GFSGBSN_prec_precacc24_102.txt.gz
Total_Precipitation_Accumulation
0.01 0.01 0.01 0.01 0.01 0.00 0.00 0.00 0.00 0.00 0.00 0.00 0.00 0.00 0.00 0.00 0.00 0.00 0.00 0.00 0.00 0.00 0.00 0.00 0.00 0.00 0.00 0.00 0.00 0.00 0.00 0.00 0.00 0.00 0.00 0.00 0.00 0.00 0.00 0.00 0.00 0.00 0.00 0.00 0.00 0.00 0.00
0.01 0.00 0.00 0.00 0.00 0.01 0.00 0.00 0.00 0.00 0.00 0.00 0.00 0.00 0.00 0.00 0.00 0.00 0.00 0.00 0.00 0.00 0.00 0.00 0.00 0.01 0.00 0.00 0.00 0.00 0.00 0.00 0.00 0.00 0.00 0.00 0.00 0.00 0.00 0.00 0.00 0.00 0.00 0.00 0.00 0.00 0.00
0.01 0.01 0.01 0.01 0.01 0.01 0.01 0.00 0.01 0.01 0.00 0.00 0.00 0.00 0.00 0.00 0.00 0.00 0.00 0.00 0.00 0.00 0.00 0.00 0.00 0.01 0.00 0.00 0.00 0.00 0.00 0.00 0.00 0.00 0.00 0.00 0.00 0.00 0.00 0.00 0.00 0.00 0.00 0.00 0.00 0.00 0.00
0.01 0.01 0.01 0.01 0.01 0.01 0.01 0.01 0.01 0.01 0.01 0.00 0.00 0.01 0.00 0.00 0.00 0.00 0.00 0.00 0.00 0.00 0.00 0.00 0.00 0.01 0.00 0.00 0.00 0.00 0.00 0.00 0.00 0.00 0.00 0.00 0.00 0.00 0.00 0.00 0.00 0.00 0.00 0.00 0.00 0.00 0.00
0.01 0.01 0.01 0.01 0.01 0.01 0.01 0.01 0.01 0.01 0.00 0.00 0.00 0.01 0.01 0.00 0.00 0.00 0.00 0.00 0.00 0.00 0.00 0.00 0.00 0.00 0.00 0.00 0.00 0.00 0.00 0.00 0.00 0.00 0.00 0.00 0.00 0.00 0.00 0.00 0.00 0.00 0.00 0.00 0.00 0.00 0.00
0.02 0.02 0.01 0.01 0.00 0.01 0.01 0.01 0.02 0.01 0.01 0.01 0.01 0.01 0.00 0.00 0.00 0.00 0.00 0.00 0.00 0.00 0.00 0.00 0.01 0.01 0.00 0.00 0.00 0.00 0.00 0.00 0.00 0.00 0.00 0.00 0.00 0.00 0.00 0.00 0.00 0.00 0.00 0.00 0.00 0.00 0.00
0.04 0.02 0.02 0.01 0.01 0.01 0.01 0.01 0.02 0.01 0.01 0.01 0.01 0.00 0.00 0.00 0.00 0.00 0.00 0.00 0.00 0.00 0.00 0.00 0.00 0.00 0.00 0.00 0.00 0.00 0.00 0.00 0.00 0.00 0.00 0.00 0.00 0.00 0.00 0.00 0.00 0.00 0.00 0.02 0.00 0.00 0.00
0.04 0.03 0.02 0.02 0.01 0.01 0.01 0.01 0.02 0.02 0.02 0.01 0.00 0.00 0.00 0.00 0.00 0.00 0.00 0.00 0.00 0.03 0.05 0.00 0.00 0.00 0.00 0.00 0.00 0.00 0.00 0.00 0.00 0.00 0.00 0.01 0.02 0.00 0.00 0.00 0.00 0.03 0.08 0.03 0.00 0.00 0.01
0.04 0.02 0.02 0.01 0.01 0.01 0.01 0.02 0.02 0.02 0.01 0.00 0.00 0.00 0.00 0.00 0.00 0.00 0.00 0.00 0.00 0.00 0.02 0.00 0.00 0.00 0.00 0.00 0.01 0.00 0.00 0.00 0.00 0.01 0.01 0.02 0.01 0.00 0.00 0.00 0.00 0.00 0.01 0.00 0.00 0.02 0.06
0.03 0.02 0.01 0.00 0.00 0.01 0.01 0.01 0.01 0.01 0.01 0.01 0.00 0.00 0.00 0.00 0.00 0.00 0.00 0.00 0.00 0.00 0.06 0.00 0.00 0.03 0.04 0.01 0.01 0.00 0.00 0.00 0.00 0.00 0.00 0.01 0.00 0.00 0.00 0.00 0.00 0.00 0.00 0.00 0.02 0.11 0.09
0.03 0.02 0.00 0.00 0.01 0.01 0.01 0.01 0.01 0.01 0.00 0.01 0.01 0.01 0.01 0.01 0.00 0.00 0.00 0.00 0.00 0.05 0.07 0.00 0.01 0.04 0.01 0.01 0.01 0.01 0.00 0.01 0.01 0.00 0.01 0.01 0.00 0.00 0.00 0.00 0.00 0.01 0.00 0.02 0.07 0.04 0.02
0.03 0.02 0.01 0.01 0.01 0.01 0.01 0.00 0.01 0.01 0.01 0.01 0.02 0.01 0.01 0.00 0.00 0.00 0.00 0.00 0.03 0.12 0.04 0.00 0.01 0.02 0.02 0.00 0.00 0.00 0.00 0.01 0.01 0.00 0.01 0.01 0.01 0.01 0.00 0.00 0.02 0.03 0.03 0.10 0.09 0.07 0.14
0.02 0.02 0.02 0.01 0.01 0.00 0.00 0.00 0.00 0.01 0.01 0.02 0.02 0.01 0.00 0.00 0.00 0.00 0.00 0.00 0.07 0.05 0.00 0.00 0.01 0.00 0.02 0.05 0.06 0.08 0.08 0.10 0.06 0.01 0.06 0.06 0.07 0.00 0.00 0.02 0.01 0.03 0.11 0.25 0.19 0.17 0.10
0.01 0.01 0.01 0.01 0.00 0.01 0.01 0.00 0.01 0.01 0.01 0.01 0.01 0.01 0.00 0.00 0.00 0.00 0.00 0.06 0.06 0.00 0.01 0.00 0.00 0.01 0.13 0.19 0.16 0.18 0.09 0.03 0.00 0.00 0.04 0.11 0.19 0.03 0.00 0.00 0.00 0.02 0.13 0.20 0.15 0.07 0.03
0.03 0.02 0.01 0.00 0.01 0.01 0.01 0.01 0.01 0.01 0.02 0.03 0.03 0.00 0.00 0.00 0.00 0.00 0.07 0.11 0.01 0.02 0.03 0.02 0.01 0.12 0.25 0.15 0.23 0.19 0.05 0.02 0.00 0.00 0.11 0.15 0.22 0.01 0.00 0.00 0.00 0.00 0.04 0.05 0.23 0.24 0.26
0.02 0.01 0.01 0.01 0.01 0.01 0.02 0.02 0.02 0.02 0.04 0.08 0.02 0.01 0.00 0.00 0.00 0.03 0.16 0.08 0.00 0.00 0.00 0.05 0.33 0.29 0.33 0.15 0.21 0.14 0.07 0.03 0.00 0.01 0.02 0.08 0.07 0.00 0.00 0.02 0.01 0.00 0.03 0.29 0.51 0.39 0.24
0.03 0.02 0.02 0.01 0.02 0.02 0.02 0.03 0.02 0.02 0.06 0.07 0.02 0.02 0.00 0.02 0.06 0.17 0.19 0.04 0.00 0.00 0.02 0.13 0.38 0.34 0.32 0.41 0.33 0.43 0.38 0.14 0.02 0.01 0.00 0.03 0.04 0.00 0.01 0.11 0.01 0.01 0.07 0.25 0.35 0.14 0.23
0.03 0.03 0.02 0.02 0.02 0.03 0.04 0.04 0.05 0.07 0.09 0.05 0.06 0.05 0.06 0.26 0.29 0.27 0.12 0.03 0.01 0.00 0.00 0.04 0.23 0.42 0.52 0.55 0.51 1.03 0.57 0.20 0.02 0.02 0.03 0.02 0.03 0.03 0.01 0.01 0.01 0.01 0.02 0.07 0.28 0.21 0.16
0.05 0.03 0.02 0.03 0.02 0.03 0.02 0.03 0.08 0.12 0.08 0.09 0.21 0.06 0.01 0.34 0.50 0.17 0.04 0.00 0.00 0.00 0.00 0.02 0.09 0.43 0.62 0.66 0.78 0.72 0.66 0.20 0.01 0.01 0.05 0.05 0.08 0.13 0.15 0.09 0.09 0.06 0.07 0.11 0.17 0.28 0.31
0.05 0.04 0.02 0.02 0.03 0.02 0.02 0.06 0.08 0.15 0.10 0.07 0.18 0.08 0.01 0.23 0.41 0.17 0.15 0.08 0.07 0.01 0.10 0.08 0.14 0.44 0.52 0.48 0.39 0.54 0.60 0.18 0.06 0.01 0.01 0.03 0.08 0.10 0.11 0.15 0.24 0.29 0.25 0.17 0.29 0.38 0.18
0.05 0.04 0.03 0.03 0.05 0.06 0.05 0.04 0.07 0.16 0.15 0.07 0.09 0.02 0.03 0.13 0.22 0.18 0.26 0.39 0.37 0.30 0.16 0.12 0.19 0.20 0.23 0.38 0.23 0.22 0.33 0.22 0.14 0.05 0.07 0.08 0.18 0.11 0.06 0.01 0.07 0.17 0.21 0.37 0.31 0.22 0.30
0.05 0.04 0.02 0.01 0.03 0.04 0.05 0.05 0.06 0.17 0.21 0.11 0.06 0.01 0.02 0.02 0.03 0.09 0.18 0.27 0.25 0.11 0.09 0.07 0.05 0.05 0.05 0.11 0.16 0.09 0.08 0.21 0.20 0.10 0.22 0.08 0.08 0.17 0.10 0.01 0.02 0.01 0.02 0.10 0.22 0.29 0.25
0.06 0.05 0.04 0.03 0.04 0.07 0.16 0.18 0.17 0.25 0.36 0.19 0.04 0.02 0.06 0.02 0.00 0.03 0.09 0.08 0.08 0.05 0.05 0.02 0.01 0.01 0.01 0.00 0.00 0.00 0.01 0.01 0.03 0.04 0.07 0.05 0.01 0.02 0.01 0.00 0.00 0.00 0.00 0.00 0.01 0.05 0.08
0.05 0.05 0.04 0.05 0.05 0.07 0.16 0.27 0.27 0.37 0.37 0.16 0.05 0.06 0.07 0.03 0.00 0.00 0.00 0.00 0.02 0.01 0.02 0.01 0.03 0.02 0.01 0.02 0.01 0.01 0.01 0.01 0.00 0.00 0.01 0.02 0.01 0.02 0.01 0.00 0.04 0.01 0.00 0.01 0.00 0.01 0.00
0.05 0.06 0.06 0.05 0.05 0.05 0.08 0.15 0.20 0.24 0.28 0.17 0.09 0.10 0.09 0.04 0.00 0.00 0.00 0.00 0.00 0.01 0.01 0.00 0.01 0.02 0.01 0.07 0.12 0.05 0.01 0.03 0.01 0.00 0.00 0.00 0.00 0.00 0.00 0.01 0.02 0.01 0.00 0.00 0.03 0.03 0.00
0.03 0.03 0.04 0.05 0.06 0.06 0.05 0.04 0.11 0.23 0.30 0.20 0.05 0.06 0.10 0.08 0.02 0.00 0.00 0.00 0.00 0.00 0.00 0.00 0.05 0.03 0.01 0.08 0.09 0.09 0.03 0.04 0.01 0.00 0.00 0.00 0.00 0.00 0.00 0.02 0.04 0.06 0.00 0.00 0.00 0.05 0.00
0.04 0.03 0.04 0.04 0.04 0.06 0.05 0.03 0.05 0.12 0.31 0.33 0.12 0.04 0.14 0.10 0.01 0.01 0.02 0.02 0.03 0.02 0.01 0.03 0.03 0.07 0.03 0.12 0.14 0.05 0.06 0.02 0.07 0.07 0.05 0.01 0.01 0.01 0.00 0.03 0.02 0.00 0.00 0.00 0.05 0.12 0.02
0.02 0.03 0.03 0.03 0.04 0.05 0.06 0.05 0.04 0.06 0.16 0.47 0.34 0.07 0.10 0.08 0.01 0.00 0.00 0.01 0.01 0.04 0.09 0.08 0.04 0.22 0.13 0.05 0.02 0.02 0.04 0.03 0.12 0.12 0.10 0.09 0.09 0.05 0.04 0.06 0.04 0.01 0.01 0.05 0.09 0.06 0.03
0.02 0.03 0.03 0.03 0.03 0.02 0.03 0.04 0.04 0.06 0.12 0.40 0.50 0.16 0.17 0.18 0.02 0.00 0.00 0.00 0.00 0.01 0.04 0.14 0.30 0.27 0.25 0.24 0.11 0.07 0.07 0.07 0.07 0.23 0.16 0.33 0.19 0.12 0.07 0.12 0.17 0.14 0.08 0.09 0.09 0.13 0.15

GFSGBSN_prec_precacc24_105.txt.gz
Total_Precipitation_Accumulation
0.01 0.00 0.00 0.00 0.00 0.00 0.00 0.00 0.00 0.00 0.00 0.00 0.00 0.00 0.00 0.00 0.00 0.00 0.00 0.00 0.00 0.00 0.00 0.00 0.00 0.00 0.00 0.00 0.00 0.00 0.00 0.00 0.00 0.00 0.00 0.00 0.00 0.00 0.00 0.00 0.00 0.00 0.00 0.00 0.00 0.00 0.00
0.01 0.00 0.00 0.00 0.00 0.00 0.00 0.00 0.00 0.00 0.00 0.00 0.00 0.00 0.00 0.00 0.00 0.00 0.00 0.00 0.00 0.00 0.00 0.00 0.00 0.01 0.00 0.00 0.00 0.00 0.00 0.00 0.00 0.00 0.00 0.00 0.00 0.00 0.00 0.00 0.00 0.00 0.00 0.00 0.00 0.00 0.00
0.01 0.01 0.01 0.00 0.00 0.00 0.00 0.00 0.01 0.01 0.00 0.00 0.00 0.00 0.00 0.00 0.00 0.00 0.00 0.00 0.00 0.00 0.00 0.00 0.00 0.01 0.00 0.00 0.00 0.00 0.00 0.00 0.00 0.00 0.00 0.00 0.00 0.00 0.00 0.00 0.00 0.00 0.00 0.00 0.00 0.00 0.00
0.02 0.01 0.01 0.01 0.01 0.00 0.00 0.01 0.01 0.01 0.01 0.00 0.00 0.00 0.00 0.00 0.00 0.00 0.00 0.00 0.00 0.00 0.00 0.00 0.00 0.01 0.00 0.00 0.00 0.00 0.00 0.00 0.00 0.00 0.00 0.00 0.00 0.00 0.00 0.00 0.00 0.00 0.00 0.00 0.00 0.00 0.00
0.03 0.02 0.02 0.01 0.01 0.00 0.00 0.00 0.00 0.01 0.00 0.00 0.00 0.01 0.00 0.00 0.00 0.00 0.00 0.00 0.00 0.00 0.00 0.00 0.00 0.00 0.00 0.00 0.00 0.00 0.00 0.00 0.00 0.00 0.00 0.00 0.00 0.00 0.00 0.00 0.00 0.00 0.00 0.00 0.00 0.00 0.00
0.04 0.03 0.03 0.02 0.01 0.01 0.00 0.01 0.01 0.00 0.00 0.00 0.01 0.01 0.00 0.00 0.00 0.00 0.00 0.00 0.00 0.00 0.00 0.00 0.01 0.01 0.00 0.00 0.00 0.00 0.00 0.00 0.00 0.00 0.00 0.00 0.00 0.00 0.00 0.00 0.00 0.00 0.00 0.00 0.00 0.00 0.00
0.06 0.04 0.03 0.02 0.01 0.00 0.01 0.01 0.01 0.00 0.01 0.01 0.01 0.00 0.00 0.00 0.00 0.00 0.00 0.00 0.00 0.00 0.00 0.00 0.00 0.00 0.00 0.00 0.00 0.00 0.00 0.00 0.00 0.00 0.00 0.00 0.00 0.00 0.00 0.00 0.00 0.00 0.00 0.02 0.00 0.00 0.00
0.07 0.05 0.03 0.03 0.01 0.01 0.01 0.01 0.01 0.01 0.01 0.01 0.00 0.00 0.00 0.00 0.00 0.00 0.00 0.00 0.00 0.03 0.05 0.00 0.00 0.00 0.00 0.00 0.00 0.00 0.00 0.00 0.01 0.02 0.01 0.02 0.02 0.00 0.00 0.00 0.01 0.03 0.08 0.03 0.00 0.01 0.04
0.08 0.05 0.04 0.02 0.01 0.00 0.01 0.01 0.01 0.00 0.00 0.00 0.00 0.00 0.00 0.00 0.00 0.00 0.00 0.00 0.00 0.00 0.02 0.00 0.00 0.00 0.00 0.00 0.01 0.00 0.00 0.00 0.02 0.04 0.03 0.05 0.02 0.00 0.01 0.01 0.01 0.00 0.01 0.00 0.00 0.04 0.13
0.07 0.05 0.04 0.03 0.01 0.01 0.01 0.01 0.01 0.00 0.00 0.00 0.00 0.00 0.00 0.00 0.00 0.00 0.00 0.00 0.00 0.00 0.06 0.00 0.00 0.03 0.04 0.01 0.01 0.00 0.00 0.00 0.01 0.01 0.01 0.02 0.00 0.00 0.01 0.02 0.01 0.00 0.00 0.00 0.02 0.14 0.14
0.10 0.06 0.04 0.02 0.01 0.01 0.01 0.01 0.00 0.01 0.00 0.01 0.01 0.01 0.01 0.01 0.00 0.00 0.00 0.00 0.00 0.05 0.07 0.00 0.01 0.04 0.01 0.01 0.01 0.01 0.00 0.01 0.02 0.01 0.03 0.03 0.01 0.00 0.01 0.01 0.01 0.00 0.00 0.00 0.03 0.08 0.04
0.13 0.08 0.04 0.02 0.03 0.02 0.01 0.00 0.00 0.00 0.00 0.00 0.00 0.01 0.01 0.00 0.00 0.00 0.00 0.00 0.03 0.11 0.04 0.00 0.01 0.02 0.02 0.00 0.00 0.00 0.00 0.01 0.01 0.02 0.02 0.01 0.01 0.04 0.01 0.00 0.00 0.01 0.01 0.06 0.07 0.06 0.09
0.10 0.05 0.03 0.02 0.01 0.01 0.00 0.00 0.00 0.00 0.00 0.01 0.00 0.01 0.00 0.00 0.00 0.00 0.00 0.00 0.06 0.05 0.00 0.00 0.01 0.00 0.02 0.05 0.06 0.08 0.08 0.12 0.09 0.02 0.06 0.06 0.07 0.01 0.01 0.02 0.01 0.01 0.06 0.11 0.17 0.18 0.07
0.06 0.04 0.03 0.02 0.01 0.01 0.00 0.00 0.00 0.00 0.01 0.01 0.01 0.00 0.00 0.00 0.00 0.00 0.00 0.05 0.05 0.00 0.01 0.00 0.00 0.01 0.13 0.20 0.16 0.18 0.09 0.08 0.03 0.00 0.04 0.11 0.21 0.04 0.00 0.01 0.01 0.01 0.08 0.13 0.13 0.06 0.03
0.03 0.02 0.01 0.01 0.02 0.01 0.01 0.01 0.00 0.00 0.01 0.02 0.02 0.00 0.00 0.00 0.00 0.00 0.04 0.10 0.01 0.02 0.03 0.02 0.01 0.12 0.25 0.15 0.23 0.19 0.06 0.07 0.02 0.00 0.11 0.28 0.39 0.02 0.01 0.01 0.00 0.01 0.03 0.04 0.19 0.20 0.24
0.03 0.02 0.02 0.01 0.01 0.01 0.01 0.01 0.01 0.01 0.01 0.04 0.01 0.00 0.00 0.00 0.00 0.01 0.12 0.06 0.00 0.00 0.00 0.05 0.33 0.29 0.33 0.16 0.21 0.14 0.09 0.06 0.04 0.01 0.03 0.16 0.44 0.03 0.00 0.02 0.01 0.00 0.02 0.20 0.28 0.48 0.47
0.03 0.03 0.02 0.02 0.01 0.02 0.01 0.01 0.01 0.01 0.03 0.04 0.01 0.01 0.00 0.02 0.04 0.14 0.16 0.03 0.00 0.00 0.02 0.13 0.38 0.34 0.32 0.42 0.34 0.44 0.39 0.17 0.05 0.11 0.05 0.15 0.35 0.04 0.02 0.12 0.02 0.01 0.08 0.11 0.24 0.18 0.47
0.03 0.03 0.02 0.02 0.02 0.02 0.02 0.01 0.03 0.06 0.05 0.02 0.03 0.02 0.05 0.24 0.26 0.23 0.10 0.02 0.01 0.00 0.00 0.04 0.23 0.43 0.52 0.56 0.51 1.04 0.58 0.31 0.04 0.17 0.20 0.03 0.07 0.04 0.02 0.02 0.02 0.01 0.02 0.04 0.25 0.26 0.32
0.05 0.03 0.02 0.03 0.02 0.01 0.01 0.01 0.04 0.08 0.05 0.01 0.10 0.05 0.01 0.18 0.46 0.15 0.03 0.00 0.00 0.00 0.00 0.02 0.09 0.43 0.62 0.67 0.79 0.72 0.67 0.20 0.01 0.02 0.05 0.08 0.12 0.16 0.17 0.09 0.19 0.12 0.07 0.08 0.16 0.27 0.26
0.05 0.04 0.02 0.02 0.02 0.02 0.01 0.05 0.07 0.11 0.07 0.01 0.08 0.06 0.01 0.17 0.30 0.16 0.13 0.07 0.07 0.01 0.10 0.08 0.14 0.44 0.52 0.48 0.40 0.54 0.60 0.18 0.06 0.01 0.01 0.04 0.10 0.15 0.18 0.09 0.13 0.20 0.24 0.20 0.31 0.34 0.23
0.05 0.03 0.02 0.02 0.03 0.03 0.02 0.01 0.05 0.14 0.11 0.02 0.03 0.01 0.01 0.11 0.22 0.17 0.24 0.35 0.35 0.29 0.16 0.12 0.19 0.20 0.23 0.39 0.23 0.22 0.33 0.23 0.14 0.05 0.07 0.08 0.30 0.22 0.09 0.04 0.05 0.29 0.43 0.45 0.34 0.16 0.38
0.05 0.04 0.02 0.01 0.03 0.02 0.01 0.02 0.04 0.15 0.17 0.05 0.02 0.01 0.01 0.00 0.02 0.07 0.17 0.27 0.25 0.11 0.09 0.06 0.05 0.05 0.05 0.11 0.16 0.09 0.08 0.23 0.20 0.10 0.23 0.09 0.25 0.32 0.23 0.10 0.15 0.16 0.23 0.15 0.12 0.22 0.26
0.05 0.04 0.04 0.02 0.03 0.02 0.02 0.04 0.11 0.23 0.32 0.13 0.02 0.02 0.03 0.01 0.00 0.02 0.07 0.07 0.07 0.05 0.05 0.01 0.00 0.00 0.00 0.00 0.00 0.00 0.00 0.04 0.02 0.04 0.08 0.07 0.04 0.12 0.12 0.02 0.01 0.09 0.03 0.01 0.00 0.04 0.08
0.05 0.05 0.04 0.04 0.04 0.05 0.04 0.06 0.13 0.34 0.36 0.16 0.04 0.05 0.06 0.02 0.00 0.00 0.00 0.00 0.00 0.00 0.02 0.00 0.01 0.00 0.00 0.00 0.00 0.00 0.00 0.01 0.00 0.00 0.01 0.01 0.01 0.02 0.01 0.01 0.15 0.15 0.02 0.02 0.00 0.01 0.00
0.05 0.06 0.05 0.04 0.04 0.04 0.04 0.04 0.08 0.22 0.26 0.17 0.09 0.08 0.07 0.03 0.00 0.00 0.00 0.00 0.00 0.00 0.00 0.00 0.01 0.01 0.00 0.00 0.00 0.01 0.01 0.03 0.00 0.00 0.00 0.00 0.00 0.00 0.01 0.03 0.06 0.01 0.00 0.00 0.04 0.03 0.00
0.03 0.04 0.04 0.03 0.04 0.05 0.04 0.03 0.03 0.09 0.25 0.19 0.06 0.04 0.06 0.05 0.02 0.00 0.00 0.00 0.00 0.00 0.00 0.00 0.03 0.02 0.00 0.00 0.01 0.07 0.04 0.03 0.02 0.01 0.00 0.00 0.00 0.00 0.00 0.02 0.08 0.07 0.00 0.00 0.00 0.07 0.01
0.04 0.04 0.04 0.03 0.04 0.05 0.04 0.02 0.03 0.05 0.18 0.29 0.13 0.04 0.10 0.07 0.01 0.00 0.00 0.00 0.00 0.00 0.00 0.00 0.01 0.02 0.01 0.02 0.10 0.06 0.08 0.01 0.03 0.03 0.02 0.01 0.00 0.00 0.00 0.02 0.02 0.00 0.00 0.00 0.05 0.14 0.03
0.02 0.03 0.04 0.03 0.04 0.03 0.04 0.03 0.03 0.04 0.10 0.32 0.32 0.07 0.08 0.07 0.01 0.00 0.00 0.00 0.00 0.01 0.04 0.02 0.02 0.02 0.03 0.05 0.03 0.02 0.03 0.01 0.05 0.04 0.03 0.08 0.09 0.04 0.03 0.05 0.04 0.01 0.00 0.05 0.09 0.07 0.05
0.02 0.03 0.03 0.03 0.02 0.02 0.02 0.02 0.02 0.05 0.09 0.26 0.39 0.15 0.14 0.16 0.02 0.00 0.00 0.00 0.00 0.00 0.01 0.01 0.08 0.15 0.19 0.23 0.10 0.04 0.03 0.03 0.03 0.22 0.07 0.25 0.19 0.11 0.07 0.13 0.17 0.09 0.05 0.07 0.07 0.09 0.12